Weather History for McCook, NE

Change the Weather History Date:

Sunday, April 27, 2014

  Actual Average Record
Temperature  
Mean Temperature 56 °F 54 °F  
Max Temperature 70 °F 68 °F 92 °F (1955)
Min Temperature 41 °F 39 °F 25 °F (1988)
Degree Days  
Heating Degree Days 8    
Growing Degree Days 7 (Base 50)    
Moisture  
Dew Point 35 °F    
Average Humidity 46    
Maximum Humidity 80    
Minimum Humidity 18    
Precipitation  
Precipitation 0.01 in 0.09 in 0.80 in (1964)
Month to date precipitation 0.85 2.03  
Year to date precipitation 1.60 4.52  
Sea Level Pressure  
Sea Level Pressure 29.19 in    
Wind  
Wind Speed 16 mph (SSE)    
Max Wind Speed 30 mph    
Max Gust Speed 39 mph    
Visibility 10 miles    
Events Rain    
T = Trace of Precipitation, MM = Missing Value Source: NWS Daily Summary

Daily Weather History Graph

Daily Weather History Graph

Search for Another Location

Airport:

Trip Planner

Search our weather history database for the weather conditions in past years. The results will help you decide how hot, cold, wet, or windy it might be!

Date:

Astronomy

Apr. 27, 2014 Rise Set
Actual Time 6:47 AM CDT 8:33 PM CDT
Civil Twilight 6:18 AM CDT 9:02 PM CDT
Nautical Twilight 5:42 AM CDT 9:38 PM CDT
Astronomical Twilight 5:05 AM CDT 10:15 PM CDT
Moon 5:48 AM CDT (4/27) 7:09 PM CDT (4/27)
Length of Visible Light 14h 44m
Length of Day
13h 46m
Waning Crescent, 3% of the Moon is Illuminated
Apr 27
Waning Crescent
Apr 29
New
May 6
First Quarter
May 14
Full
May 21
Last Quarter

Hourly Weather History & Observations

Time (CDT) Temp. Windchill Dew Point Humidity Pressure Visibility Wind Dir Wind Speed Gust Speed Precip Events Conditions
12:53 AM 66.0 °F - 51.1 °F 59% 29.19 in 10.0 mi SE 12.7 mph 19.6 mph N/A   Clear
1:53 AM 69.1 °F - 48.9 °F 49% 29.17 in 10.0 mi South 18.4 mph 26.5 mph N/A   Clear
2:53 AM 66.0 °F - 45.0 °F 47% 29.17 in 10.0 mi South 16.1 mph 23.0 mph N/A   Clear
3:53 AM 62.1 °F - 39.0 °F 43% 29.17 in 10.0 mi South 11.5 mph - N/A   Clear
4:53 AM 59.0 °F - 30.9 °F 35% 29.18 in 10.0 mi South 8.1 mph - N/A   Clear
5:53 AM 55.9 °F - 33.1 °F 42% 29.18 in 10.0 mi SSW 11.5 mph - N/A   Mostly Cloudy
6:53 AM 54.0 °F - 34.0 °F 47% 29.16 in 10.0 mi Calm Calm - N/A   Overcast
7:53 AM 53.1 °F - 37.9 °F 57% 29.14 in 10.0 mi ENE 8.1 mph - N/A   Clear
8:53 AM 57.9 °F - 37.9 °F 47% 29.11 in 10.0 mi Calm Calm - N/A   Clear
9:53 AM 66.0 °F - 35.1 °F 32% 29.11 in 9.0 mi SSE 25.3 mph 34.5 mph N/A   Clear
10:53 AM 68.0 °F - 30.2 °F 24% 29.17 in 10.0 mi SSE 21.9 mph 28.8 mph N/A   Clear
11:53 AM 68.0 °F - 25.0 °F 20% 29.10 in 10.0 mi SSE 21.9 mph 27.6 mph N/A   Clear
12:53 PM 69.1 °F - 23.0 °F 18% 29.11 in 10.0 mi SSE 23.0 mph 32.2 mph N/A   Clear
1:53 PM 68.0 °F - 23.0 °F 18% 29.08 in 10.0 mi SSE 12.7 mph 21.9 mph N/A   Clear
2:53 PM 66.2 °F - 26.6 °F 23% 29.15 in 10.0 mi South 17.3 mph 29.9 mph N/A   Clear
3:53 PM 63.0 °F - 30.0 °F 29% 29.10 in 10.0 mi South 18.4 mph 29.9 mph N/A   Mostly Cloudy
4:53 PM 64.9 °F - 28.9 °F 26% 29.08 in 10.0 mi NE 6.9 mph - N/A   Clear
5:53 PM 66.9 °F - 28.0 °F 23% 29.10 in 10.0 mi ENE 8.1 mph - N/A   Scattered Clouds
6:16 PM 60.1 °F - 35.1 °F 39% 29.16 in 10.0 mi East 17.3 mph 26.5 mph N/A   Mostly Cloudy
6:53 PM 62.1 °F - 30.0 °F 30% 29.13 in 10.0 mi NNE 16.1 mph 21.9 mph N/A   Overcast
7:53 PM 57.9 °F - 35.1 °F 42% 29.18 in 9.0 mi NW 29.9 mph 38.0 mph N/A   Overcast
8:53 PM 48.9 °F - 43.0 °F 80% 29.26 in 8.0 mi NNW 28.8 mph 39.1 mph 0.00 in Rain Light Rain
9:25 PM 48.0 °F - 42.1 °F 80% 29.31 in 10.0 mi NNW 25.3 mph 39.1 mph 0.01 in   Overcast
9:53 PM 46.9 °F - 41.0 °F 80% 29.31 in 10.0 mi NNW 26.5 mph 32.2 mph 0.01 in   Overcast
10:08 PM 46.9 °F - 39.9 °F 77% 29.34 in 10.0 mi NW 26.5 mph 32.2 mph N/A   Overcast
10:20 PM 46.0 °F 37.2 °F 39.0 °F 76% 29.35 in 10.0 mi NW 26.5 mph 34.5 mph N/A   Overcast
10:53 PM 45.0 °F 36.4 °F 37.9 °F 76% 29.34 in 10.0 mi WNW 23.0 mph 35.7 mph N/A   Overcast
11:53 PM 44.1 °F 34.0 °F 35.1 °F 71% 29.35 in 10.0 mi NW 29.9 mph 35.7 mph N/A   Overcast